Weather Roundup
Issued by NWS Springfield, MO

Home | Current Version | Previous Version | Text Only | Print | Product List | Glossary Off
Versions: 1 2 3 4 5 6 7 8 9 10 11 12 13 14 15 16 17 18 19 20 21 22 23 24 25 26 27 28 29 30 31 32 33 34 35 36 37 38 39 40 41 42 43 44 45 46 47 48 49 50

000
NZUS99 KSGF 211307
HRRSGF

HOURLY WEATHER
NATIONAL WEATHER SERVICE SPRINGFIELD MO
700 AM CST SAT JAN 21 2017

......SGF CWA......

CITY           SKY/WX    TMP DP  RH WIND       PRES   REMARKS
SPRINGFIELD    CLEAR     42  35  76 SW8       29.54R
JOPLIN         CLEAR     43  35  73 SW5       29.55R
WEST PLAINS    PTCLDY    48  44  86 S6        29.59R
ROLLA          CLEAR     49  43  80 S12       29.52R
OSAGE BEACH    PTCLDY    47  39  74 S6        29.53R
BRANSON        CLEAR     50  37  62 SE6       29.57S

......SURROUNDING SGF CWA......

CITY           SKY/WX    TMP DP  RH WIND       PRES   REMARKS
CHANUTE        CLEAR     35  33  92 S7        29.51S WCI  29
PARSONS        CLEAR     35  33  92 S8        29.54S WCI  29
COFFEYVILLE    CLEAR     37  34  89 S5        29.54R WCI  33
EMPORIA        CLEAR     32  32 100 SW6       29.47R WCI  26
GROVE OK       CLEAR     43  36  75 S3        29.58R
ROGERS AR      CLEAR     47  38  71 S8        29.57R
SILOAM SPRINGS CLEAR     48  36  61 S5        29.56S
HARRISON AR    CLEAR     48  42  80 S7        29.58S
NEAR YELLVILLE PTCLDY    48  39  71 S6        29.56S

......KANSAS AND MISSOURI......

CITY           SKY/WX    TMP DP  RH WIND       PRES   REMARKS
KANSAS CTY INT FOG       41  39  93 SW8       29.47R VSB 1/2
DOWNTOWN KC    CLOUDY    41  40  96 W8        29.48S FOG
COLUMBIA       CLEAR     46  39  76 SW12      29.50R
SEDALIA        CLEAR     47  38  71 SW15      29.52R
ST JOSEPH      FOG       40  40 100 SW9       29.46R VSB 1/2 WCI  34
ST LOUIS       PTCLDY    52  45  77 S9        29.53S
SPIRIT OF STL  CLEAR     53  45  74 SW6       29.52R
KIRKSVILLE     CLEAR     42  38  85 SW9       29.44R
WICHITA        CLEAR     31  29  92 SW6       29.49R WCI  25
TOPEKA         FOG       32  30  92 SW3       29.47R VSB 1/4
OLATHE         FOG       37  37 100 SW3       29.48S VSB 1/4

......TENNESSEE......

CITY           SKY/WX    TMP DP  RH WIND       PRES   REMARKS
MEMPHIS        CLOUDY    63  55  75 S13       29.65F
NASHVILLE      CLOUDY    58  54  86 S8        29.75R

......ARKANSAS.......

CITY           SKY/WX    TMP DP  RH WIND       PRES   REMARKS
FAYETTEVILLE   CLEAR     43  39  86 S5        29.57S
FT SMITH       CLEAR     41  38  89 E5        29.58R
LITTLE ROCK    MOCLDY    51  51 100 CALM      29.62R

......OKLAHOMA.......

CITY           SKY/WX    TMP DP  RH WIND       PRES   REMARKS
TULSA          PTCLDY    42  35  76 CALM      29.55S
PONCA CITY     CLEAR     35  32  88 CALM      29.54R
MCALESTER      PTCLDY    46  39  76 CALM      29.56R
OKLAHOMA CITY  CLOUDY    41  33  73 CALM      29.53R

......IOWA............

CITY           SKY/WX    TMP DP  RH WIND       PRES   REMARKS
DES MOINES     FOG       44  43  96 S7        29.40R VSB 1/4
QUAD CITIES    CLEAR     44  42  93 S6        29.42S

......ILLINOIS........

CITY           SKY/WX    TMP DP  RH WIND       PRES   REMARKS
QUINCY         CLEAR     47  41  80 S12       29.45R
CHICAGO        CLOUDY    48  47  96 S9        29.52F FOG




USA.gov is the U.S. government's official web portal to all federal, state and local government web resources and services.